Weather Roundup
Issued by NWS Corpus Christi, TX

Home | Current Version | Previous Version | Text Only | Print | Product List | Glossary On
Versions: 1 2 3 4 5 6 7 8 9 10 11 12 13 14 15 16 17 18 19 20 21 22 23 24 25 26 27 28 29 30 31 32 33 34 35 36 37 38 39 40 41 42 43 44 45 46 47 48 49 50
203
ASUS44 KCRP 300110
HRRCRP

SOUTH TEXAS REGIONAL WEATHER ROUNDUP
NATIONAL WEATHER SERVICE CORPUS CHRISTI TX
800 PM CDT FRI JUL 29 2016


TXZ229>244-300200-
...CORPUS CHRISTI AREA OBSERVATIONS...

CITY           SKY/WX    TMP DP  RH WIND       PRES   REMARKS
CORPUS CHRISTI PTCLDY    86  76  71 SE14      29.93R HX  96
NAS CORPUS CHR   N/A    N/A N/A N/A MISG      29.93R
ROCKPORT       CLEAR     86  75  69 SE16      29.93R HX  95
KINGSVILLE NAS CLEAR     85  77  77 SE13G22   29.92R HX  95
ALICE          PTCLDY    86  73  65 SE10      29.92R HX  93
FALFURRIAS     PTCLDY    82  74  76 E5        29.91S
$$

...VICTORIA AREA OBSERVATIONS...

CITY           SKY/WX    TMP DP  RH WIND       PRES   REMARKS
VICTORIA       CLEAR     85  72  65 SE12      29.93S HX  91
BEEVILLE       FAIR      82  78  89 SE3       29.93S HX  91
PLEASANTON     CLOUDY    86  68  55 E7        29.92S
SAN ANTONIO    CLOUDY    88  68  51 SE10      29.94S HX  91
$$

...LAREDO AREA OBSERVATIONS...

CITY           SKY/WX    TMP DP  RH WIND       PRES   REMARKS
LAREDO         PTCLDY    83  72  69 E10       29.91R
COTULLA        PTCLDY    83  74  74 E9        29.92R
DEL RIO        CLEAR     92  65  40 S10       29.90S HX  94
MCALLEN        CLEAR     93  70  46 SE21      29.90R HX  99
HEBBRONVILLE   PTCLDY    87  68  54 SE13G22   29.93S HX  90
$$

...OTHER TEXAS OBSERVATIONS...

CITY           SKY/WX    TMP DP  RH WIND       PRES   REMARKS
BROWNSVILLE    CLEAR     86  74  67 SE13      29.93R HX  94
HOUSTON        PTCLDY    87  73  62 S9        29.95R HX  94
COL. STATION   CLEAR     91  72  53 SE9       29.92S HX  98
AUSTIN         PTCLDY    91  72  53 SE7       29.91F HX  98
WACO           CLEAR     92  68  45 CALM      29.90S HX  96
FORT WORTH     PTCLDY    92  65  40 S7        29.89S HX  94
WICHITA FALLS  CLEAR     92  67  43 SE8       29.89S HX  95
LUBBOCK        PTCLDY    91  57  31 S13       30.00R
EL PASO        PTSUNNY   94  49  21 E17       29.96R HX  90
$$

...MARINE OBSERVATIONS...

STATION/POSITION TIME  SKY/WX   TEMP    WIND        PRES    VSBY  WAVE   SWELL
                                AIR SEA DIR/SP/G                  HT/PER HT/PER
                 (UTC)          (F)     (DEG/KT/KT) (MB)    (MI)  (FT/S) (FT/S)
PORT ARANSAS     0100            85 90  120/ 16/ 18 1013.7R
BUOY 90 E PORT A 0050            86 87  100/ 10/ 12 1014.6R         2/ 6   2/ 6
BUOY 45 SE BAFFI 0050            85 86  120/ 14/ 16 1013.1R         2/ 6
BUOY 200 E PT IS 0050            86 87  110/  8/ 10 1014.8R         2/ 7   2/ 7
BUOY 15 E GALVES 0050            87 89  160/  8/ 10 1014.7R         2/ 5   2/ 5
$$




USA.gov is the U.S. government's official web portal to all federal, state and local government web resources and services.